User: anonymous   Login
Location: Unspecified
(0.0000°N, 0.0000°E)
Time: 11:04:09
(UTC+00:00)
Language:

NOSS 3-1 (C) - Orbit

View from above orbital plane
View from above orbital plane
View from above satellite
View from above satellite

Ground track
Ground track

The orbit data is extracted from the following two-line orbital elements,

1 26907U 01040C   17349.82566968 0.00000040  00000-0  46027-4 0    03
2 26907  63.4098 284.4908 0389000 359.1481   0.8519 13.41275923    02
Epoch (UTC): 15 December 2017 19:48:57
Eccentricity: 0.0389000
inclination: 63.4098°
perigee height: 813 km
apogee height: 1395 km
right ascension of ascending node: 284.4908°
argument of perigee: 359.1481°
revolutions per day: 13.41275923
mean anomaly at epoch: 0.8519°
orbit number at epoch: 0

The dashed part of the orbit path shows where the satellite is in the earth's shadow,  

DLR